User: anonymous   Login
Location: Radomski Observatory
(40.2854°N, 79.5145°W)
Time: 13:31:14
(UTC-04:00)
Language:

Cosmos 1072 Rocket - Orbit

View from above orbital plane
View from above orbital plane
View from above satellite
View from above satellite

Ground track
Ground track

The orbit data is extracted from the following two-line orbital elements,

1 11239U 79003B   15087.17960671  .00000034  00000-0  19193-4 0  9997
2 11239 082.9402 331.2717 0041566 139.5238 311.8907 13.75761147816208
Epoch (UTC): 28 March 2015 04:18:38
Eccentricity: 0.0041566
inclination: 82.9402°
perigee height: 948 km
apogee height: 1009 km
right ascension of ascending node: 331.2717°
argument of perigee: 139.5238°
revolutions per day: 13.75761147
mean anomaly at epoch: 311.8907°
orbit number at epoch: 81620

The dashed part of the orbit path shows where the satellite is in the earth's shadow,  

DLR